Home > Time Zones > World Clock > Weather > Belgium > Spa > Past weeks

Flag for Belgium Weather past 2 weeks in Spa, Belgium

Now
47 °F

Light rain. Low clouds.


Feels Like: 42 °F
Forecast: 38 / 42 °F
Wind: 10 mph from Southwest

Location: Spa / La Sauveniere

Current Time: Dec 19, 2014 at 7:42:04 AM

Latest Report: Dec 19, 2014 at 7:00 AM


Visibility: 2 mi

Pressure: 29.96 "Hg

Humidity: 95%

Dew point: 45 °F

Location of SpaLocation

Historic Weather in Spa — Graph

°F

Spa temperature yesterday

Maximum temperature yesterday: 50 °F (at 4:00 PM)
Minimum temperature yesterday: 46 °F (at 12:00 AM)
Average temperature yesterday: 48 °F

Past Weeks' High & Low Weather Summary

 TemperatureHumidityPressure
High50 °F (Dec 18, 4:00 PM)100% (Dec 6, 2:00 AM)30.42 "Hg (Dec 6, 2:00 AM)
Low29 °F (Dec 15, 3:00 AM)76% (Dec 7, 1:00 PM)29.47 "Hg (Dec 12, 4:00 PM)
Average37 °F95%30.02 "Hg
* Reported Dec 4 6:00 AM — Dec 19 6:00 AM, Spa, Weather by CustomWeather, © 2014

Note: Actual official high and low records may vary slightly from our data, if they occured in-between our weather recording intervals... More about our weather records

Advertising

Spa weather history for previous 24 hours

 ConditionsComfort  
Time TempWeatherWind HumidityBarometerVisibility
6:00 AM
Dec 19
47 °FLight rain. Low clouds.9 mph94%29.98 "Hg2 mi
5:00 AM47 °FFog.9 mph94%29.98 "Hg2 mi
3:00 AM47 °FLight rain. Low clouds.9 mph96%30.01 "Hg2 mi
2:00 AM48 °FDrizzle. Low clouds.8 mph93%30.02 "Hg4 mi
1:00 AM48 °FLight rain. Low clouds.8 mph96%30.02 "Hg2 mi
12:00 AM48 °FDrizzle. Low clouds.8 mph95%30.01 "Hg2 mi
11:00 PM
Dec 18
48 °FDrizzle. Low clouds.8 mph95%30.01 "Hg2 mi
9:00 PM48 °FDrizzle. Low clouds.8 mph95%30.01 "Hg3 mi
8:00 PM48 °FLow clouds.8 mph94%30.01 "Hg6 mi
7:00 PM49 °FLow clouds.8 mph94%30.00 "Hg19 mi
6:00 PM50 °FDrizzle. Low clouds.8 mph97%29.98 "Hg3 mi
5:00 PM50 °FFog.9 mph97%29.96 "Hg2 mi
4:00 PM50 °FLight rain. Low clouds.7 mph97%29.95 "Hg2 mi
3:00 PM50 °FDrizzle. Low clouds.6 mph97%29.94 "Hg3 mi
2:00 PM49 °FLight rain. Low clouds.6 mph97%29.93 "Hg2 mi
1:00 PM49 °FDrizzle. Low clouds.7 mph97%29.93 "Hg2 mi
12:00 PM49 °FDrizzle. Low clouds.6 mph97%29.93 "Hg2 mi
11:00 AM49 °FLight rain. Low clouds.6 mph97%29.93 "Hg1 mi
10:00 AM49 °FDrizzle. Low clouds.6 mph97%29.91 "Hg1 mi
9:00 AM48 °FLight rain. Low clouds.7 mph97%29.90 "Hg1 mi
8:00 AM48 °FDrizzle. Low clouds.6 mph98%29.89 "Hg1 mi
7:00 AM48 °FDrizzle. Low clouds.6 mph96%29.88 "Hg2 mi
Weather by CustomWeather, © 2014

See weather overviewHow to use our weather pages